Current weather by "City, St" or "zip code"  
 

Current Conditions: Destin, Destin-Ft. Walton Beach Airport, FL

Fair


72.0 F

Last Updated on Oct 24 2020, 7:53 pm CDT
Humidity: 84%
Wind Speed: SE 3.5 mph
Barometer 29.89 in
Dewpoint: 66.9 F
Visibility: 10.00 mi
Precip: --
Heat Index: NA
Wind Chill: NA
Current conditions at:

Destin, Destin-Ft. Walton Beach Airport, FL (KDTS)

Lat: 30.39333 Lon: 86.4675

Local Radar Image active severe weather and emergency alerts image image weather storm and storm spotter reports image weather observation monitoring service image
Local
Radar
Active
Alerts
Storm Reports Obs
Monitoring

Sign-up For Email & Text Message Weather Alert Notification Services



Advertise Here

Observation History for Destin, Destin-Ft. Walton Beach Airport, FL


Time Wind
(mph)
Vis
(mi)
Weather Precip (in) Temperature (F) Relative
Humidity
Wind
Chill
(F)
Heat
Index
(F)
Pressure
Air Dwpt altimeter
(in)
sea level
(mb)
Rmks
7:53 pm CDT SE 3.5 10.00 Fair -- 72.0 66.9 84% NA NA 29.89 1012.0
6:53 pm CDT SE 5.8 10.00 Fair -- 72.0 66.0 82% NA NA 29.89 1011.9
5:53 pm CDT SE 5.8 10.00 A Few Clouds -- 73.0 66.9 81% NA NA 29.88 1011.8
4:53 pm CDT SE 4.6 10.00 Partly Cloudy -- 75.0 66.9 76% NA NA 29.89 1011.9
3:53 pm CDT 3.5 10.00 Fair -- 76.0 68.0 77% NA NA 29.89 1012.0
2:53 pm CDT SE 5.8 10.00 Fair -- 74.0 66.9 79% NA NA 29.89 1012.2
1:53 pm CDT N 0.0 10.00 Fair -- 71.0 69.1 94% NA NA 29.90 1012.3
12:53 pm CDT E 3.5 7.00 Rain -- 70.0 68.0 93% NA NA 29.92 1013.1
11:53 am CDT N 6.9 9.00 Light Rain -- 69.0 66.9 93% NA NA 29.95 1014.1
10:53 am CDT NW 4.6 4.00 Rain Fog/Mist -- 70.0 68.0 93% NA NA 29.98 1015.1
9:53 am CDT S 6.9 G 18.4 10.00 Thunderstorm in Vicinity Light Rain Trace 74.0 70.0 88% NA NA 29.98 1015.2
8:53 am CDT SE 5.8 1.75 Thunderstorm Heavy Rain Fog/Mist -- 74.0 72.0 94% NA NA 29.96 1014.6
7:53 am CDT E 4.6 10.00 Overcast -- 74.0 72.0 94% NA NA 29.95 1014.0
6:53 am CDT E 4.6 10.00 Overcast -- 73.0 71.1 94% NA NA 29.94 1013.7
5:53 am CDT SE 5.8 10.00 Overcast -- 73.0 71.1 94% NA NA 29.94 1013.7
4:53 am CDT E 3.5 10.00 Mostly Cloudy -- 72.0 70.0 94% NA NA 29.94 1013.7
3:53 am CDT E 4.6 10.00 Fair -- 72.0 70.0 94% NA NA 29.94 1013.8
2:53 am CDT E 3.5 10.00 Fair -- 73.0 71.1 94% NA NA 29.95 1014.1
1:53 am CDT E 4.6 10.00 A Few Clouds -- 73.0 71.1 94% NA NA 29.96 1014.4
12:53 am CDT E 3.5 10.00 Fair -- 73.0 72.0 96% NA NA 29.98 1015.0
11:53 pm CDT N 0.0 10.00 Fair -- 73.0 71.1 94% NA NA 29.99 1015.6
10:53 pm CDT N 0.0 10.00 Fair -- 73.0 71.1 94% NA NA 30.01 1016.2
9:53 pm CDT N 0.0 10.00 Fair -- 74.0 71.1 91% NA NA 30.00 1015.7
8:53 pm CDT NE 5.8 10.00 Fair -- 75.0 72.0 90% NA NA 29.99 1015.6

Regional Weather Observation


Crestview, Sikes Airport, FL (KCEW)

Overcast
70.0 F

Valparaiso / Eglin Air Force Base, FL (KVPS)

Partly Cloudy
71.0 F

Destin, Destin-Ft. Walton Beach Airport, FL (KDTS)

Fair
72.0 F

Milton, Whiting Field South, FL (KNDZ)

Mostly Cloudy
73.0 F

Milton - Whiting Field Naval Air Station North, FL (KNSE)

Mostly Cloudy
70.0 F

Pensacola - Pensacola International Airport, FL (KPNS)

Overcast
73.0 F